44.1°F
Current conditions from King Hill
Updated every 5 minutes
 
  Thursday April 24, 2014

Station Historical Data
 
Daily Summary for April 24, 2014 Units:  English    Metric   Both
« Previous Day
Next Day »
Daily Weekly Monthly Yearly Custom
  Current: High: Low: Average:
Temperature: 44.1 °F 45.5 °F 31.9 °F 36.2 °F
Dew Point: 25.7 °F 27.6 °F 21.3 °F 23.8 °F
Humidity: 48% 66% 46% 61%
Wind Speed: 8.0mph 12.0mph 0.0mph 4.9mph
Wind Gust: 21.0mph 30.0mph - -
WindNNW - - NW
Pressure: 29.87 in 29.88 in 29.74 in -
Precipitation: 0.00 in      
Historical Graphs
 
 
Tabular Data for April 24, 2014
Time Temperature Dew Point Pressure Wind Wind Speed Wind Gust Humidity Daily Rainfall
00:04 39.2 °F 26.9 °F 29.74 in Calm   16.0 mph 61% 0.00 in
00:09 39.2 °F 26.9 °F 29.74 in NNW 2.0 mph 16.0 mph 61% 0.00 in
00:14 39.1 °F 27.6 °F 29.74 in NW 1.0 mph 16.0 mph 63% 0.00 in
00:19 39.0 °F 27.1 °F 29.74 in NNW 2.0 mph 12.0 mph 62% 0.00 in
00:24 38.9 °F 27.0 °F 29.75 in Calm   12.0 mph 62% 0.00 in
00:29 38.8 °F 26.9 °F 29.75 in NW 3.0 mph 14.0 mph 62% 0.00 in
00:34 38.6 °F 27.1 °F 29.75 in NNW 2.0 mph 14.0 mph 63% 0.00 in
00:39 38.6 °F 26.7 °F 29.75 in NNW 5.0 mph 15.0 mph 62% 0.00 in
00:44 38.4 °F 26.5 °F 29.75 in North 1.0 mph 15.0 mph 62% 0.00 in
00:49 38.3 °F 26.0 °F 29.75 in NNW 6.0 mph 18.0 mph 61% 0.00 in
00:54 38.0 °F 26.1 °F 29.75 in NNW 3.0 mph 18.0 mph 62% 0.00 in
00:59 37.9 °F 25.3 °F 29.75 in NNW 6.0 mph 14.0 mph 60% 0.00 in
01:04 37.8 °F 25.6 °F 29.75 in NW 3.0 mph 15.0 mph 61% 0.00 in
01:09 37.5 °F 25.3 °F 29.75 in NNW 2.0 mph 15.0 mph 61% 0.00 in
01:14 37.2 °F 25.0 °F 29.75 in NNW 8.0 mph 23.0 mph 61% 0.00 in
01:19 37.2 °F 25.0 °F 29.74 in NNW 3.0 mph 23.0 mph 61% 0.00 in
01:24 36.9 °F 24.7 °F 29.74 in NNW 4.0 mph 19.0 mph 61% 0.00 in
01:29 36.8 °F 24.2 °F 29.74 in NW 1.0 mph 13.0 mph 60% 0.00 in
01:34 36.6 °F 24.4 °F 29.74 in NNW 3.0 mph 15.0 mph 61% 0.00 in
01:39 36.4 °F 24.6 °F 29.74 in NNW 3.0 mph 15.0 mph 62% 0.00 in
01:44 36.3 °F 24.5 °F 29.75 in NNW 1.0 mph 16.0 mph 62% 0.00 in
01:49 36.1 °F 24.0 °F 29.75 in NNW 3.0 mph 17.0 mph 61% 0.00 in
01:54 35.9 °F 24.2 °F 29.75 in North 3.0 mph 17.0 mph 62% 0.00 in
01:59 35.5 °F 24.2 °F 29.75 in Calm   15.0 mph 63% 0.00 in
02:04 35.5 °F 24.2 °F 29.75 in NNW 7.0 mph 17.0 mph 63% 0.00 in
02:09 35.6 °F 23.9 °F 29.75 in NW 4.0 mph 17.0 mph 62% 0.00 in
02:14 35.5 °F 23.8 °F 29.75 in NNW 2.0 mph 14.0 mph 62% 0.00 in
02:19 35.3 °F 24.0 °F 29.75 in NNW 4.0 mph 15.0 mph 63% 0.00 in
02:24 35.2 °F 24.2 °F 29.75 in NNW 4.0 mph 15.0 mph 64% 0.00 in
02:29 34.8 °F 23.9 °F 29.75 in NNW 3.0 mph 12.0 mph 64% 0.00 in
02:34 34.9 °F 24.0 °F 29.75 in NNW 3.0 mph 12.0 mph 64% 0.00 in
02:39 34.7 °F 24.1 °F 29.75 in NNW 4.0 mph 12.0 mph 65% 0.00 in
02:44 34.6 °F 24.4 °F 29.75 in NNW 2.0 mph 12.0 mph 66% 0.00 in
02:49 34.5 °F 24.3 °F 29.75 in Calm   12.0 mph 66% 0.00 in
02:54 34.4 °F 24.2 °F 29.76 in NW 2.0 mph 19.0 mph 66% 0.00 in
02:59 34.1 °F 23.9 °F 29.76 in NNW 3.0 mph 19.0 mph 66% 0.00 in
03:04 34.2 °F 24.0 °F 29.76 in NW 1.0 mph 14.0 mph 66% 0.00 in
03:09 34.0 °F 23.5 °F 29.76 in NW 1.0 mph 14.0 mph 65% 0.00 in
03:14 33.8 °F 23.3 °F 29.76 in NW 5.0 mph 15.0 mph 65% 0.00 in
03:19 33.7 °F 23.2 °F 29.76 in Calm   15.0 mph 65% 0.00 in
03:24 33.7 °F 22.8 °F 29.76 in NNW 5.0 mph 15.0 mph 64% 0.00 in
03:29 33.7 °F 22.4 °F 29.76 in NNW 2.0 mph 15.0 mph 63% 0.00 in
03:34 33.5 °F 22.3 °F 29.76 in NNW 2.0 mph 14.0 mph 63% 0.00 in
03:39 33.3 °F 22.4 °F 29.76 in NNW 3.0 mph 16.0 mph 64% 0.00 in
03:44 33.2 °F 22.3 °F 29.76 in North 1.0 mph 16.0 mph 64% 0.00 in
03:49 33.1 °F 22.2 °F 29.76 in NNW 5.0 mph 18.0 mph 64% 0.00 in
03:54 33.0 °F 22.2 °F 29.76 in NW 5.0 mph 18.0 mph 64% 0.00 in
03:59 33.2 °F 22.0 °F 29.76 in NW 5.0 mph 18.0 mph 63% 0.00 in
04:04 33.2 °F 22.0 °F 29.76 in NNW 1.0 mph 15.0 mph 63% 0.00 in
04:09 32.8 °F 21.6 °F 29.77 in NNW 3.0 mph 12.0 mph 63% 0.00 in
04:14 32.8 °F 21.6 °F 29.77 in NW 1.0 mph 12.0 mph 63% 0.00 in
04:19 32.5 °F 21.7 °F 29.77 in NNW 1.0 mph 10.0 mph 64% 0.00 in
04:24 32.3 °F 21.5 °F 29.77 in NNW 1.0 mph 9.0 mph 64% 0.00 in
04:29 32.3 °F 21.5 °F 29.77 in NW 3.0 mph 9.0 mph 64% 0.00 in
04:34 32.5 °F 21.7 °F 29.77 in NNW 8.0 mph 18.0 mph 64% 0.00 in
04:39 32.5 °F 21.7 °F 29.77 in NNW 4.0 mph 18.0 mph 64% 0.00 in
04:44 32.5 °F 21.7 °F 29.77 in NNW 2.0 mph 14.0 mph 64% 0.00 in
04:49 32.5 °F 21.7 °F 29.77 in NNW 2.0 mph 15.0 mph 64% 0.00 in
04:54 32.0 °F 21.6 °F 29.77 in NW 1.0 mph 15.0 mph 65% 0.00 in
04:59 31.9 °F 21.8 °F 29.77 in NW 2.0 mph 11.0 mph 66% 0.00 in
05:04 31.9 °F 21.8 °F 29.77 in NW 4.0 mph 13.0 mph 66% 0.00 in
05:09 32.3 °F 21.9 °F 29.78 in NW 2.0 mph 18.0 mph 65% 0.00 in
05:14 32.4 °F 22.0 °F 29.78 in NW 7.0 mph 18.0 mph 65% 0.00 in
05:19 32.5 °F 21.7 °F 29.78 in NNW 8.0 mph 15.0 mph 64% 0.00 in
05:24 32.5 °F 22.0 °F 29.78 in NNW 3.0 mph 16.0 mph 65% 0.00 in
05:29 32.4 °F 22.0 °F 29.78 in NNW 5.0 mph 18.0 mph 65% 0.00 in
05:34 32.4 °F 22.0 °F 29.78 in NNW 7.0 mph 18.0 mph 65% 0.00 in
05:39 32.4 °F 22.0 °F 29.78 in NW 5.0 mph 18.0 mph 65% 0.00 in
05:44 32.3 °F 21.9 °F 29.78 in NW 6.0 mph 18.0 mph 65% 0.00 in
05:49 32.4 °F 22.3 °F 29.79 in NNW 2.0 mph 18.0 mph 66% 0.00 in
05:54 32.3 °F 21.9 °F 29.79 in NNW 4.0 mph 18.0 mph 65% 0.00 in
05:59 32.3 °F 22.2 °F 29.79 in NW 5.0 mph 17.0 mph 66% 0.00 in
06:04 32.3 °F 22.2 °F 29.79 in NW 10.0 mph 21.0 mph 66% 0.00 in
06:09 32.3 °F 22.2 °F 29.79 in NNW 6.0 mph 21.0 mph 66% 0.00 in
06:14 32.2 °F 22.1 °F 29.79 in NNW 5.0 mph 15.0 mph 66% 0.00 in
06:19 32.2 °F 22.1 °F 29.79 in NNW 4.0 mph 15.0 mph 66% 0.00 in
06:24 32.2 °F 21.8 °F 29.80 in NW 12.0 mph 19.0 mph 65% 0.00 in
06:29 32.2 °F 22.1 °F 29.80 in NNW 2.0 mph 23.0 mph 66% 0.00 in
06:34 32.2 °F 22.1 °F 29.81 in NNW 2.0 mph 23.0 mph 66% 0.00 in
06:39 32.2 °F 22.1 °F 29.81 in NW 7.0 mph 17.0 mph 66% 0.00 in
06:44 32.3 °F 21.9 °F 29.81 in NW 9.0 mph 18.0 mph 65% 0.00 in
06:49 32.3 °F 21.9 °F 29.81 in NNW 12.0 mph 19.0 mph 65% 0.00 in
06:54 32.3 °F 21.9 °F 29.81 in NNW 5.0 mph 19.0 mph 65% 0.00 in
06:59 32.3 °F 21.9 °F 29.81 in NW 5.0 mph 16.0 mph 65% 0.00 in
07:04 32.3 °F 21.9 °F 29.82 in NNW 8.0 mph 18.0 mph 65% 0.00 in
07:09 32.4 °F 22.0 °F 29.82 in NNW 4.0 mph 18.0 mph 65% 0.00 in
07:14 32.4 °F 22.0 °F 29.82 in NW 4.0 mph 16.0 mph 65% 0.00 in
07:19 32.5 °F 22.0 °F 29.82 in NNW 4.0 mph 17.0 mph 65% 0.00 in
07:24 32.5 °F 22.0 °F 29.83 in NNW 6.0 mph 18.0 mph 65% 0.00 in
07:29 32.5 °F 21.7 °F 29.82 in NNW 6.0 mph 18.0 mph 64% 0.00 in
07:34 32.6 °F 21.8 °F 29.82 in NW 2.0 mph 20.0 mph 64% 0.00 in
07:39 32.6 °F 21.4 °F 29.83 in NW 10.0 mph 21.0 mph 63% 0.00 in
07:44 32.7 °F 21.5 °F 29.84 in NW 8.0 mph 21.0 mph 63% 0.00 in
07:49 32.8 °F 21.6 °F 29.84 in NNW 5.0 mph 17.0 mph 63% 0.00 in
07:54 32.9 °F 21.3 °F 29.84 in NW 7.0 mph 18.0 mph 62% 0.00 in
07:59 32.8 °F 21.6 °F 29.84 in NW 11.0 mph 22.0 mph 63% 0.00 in
08:04 32.8 °F 21.6 °F 29.85 in NW 8.0 mph 22.0 mph 63% 0.00 in
08:09 32.7 °F 21.5 °F 29.84 in NW 9.0 mph 21.0 mph 63% 0.00 in
08:14 32.8 °F 22.3 °F 29.84 in NW 1.0 mph 21.0 mph 65% 0.00 in
08:19 32.7 °F 21.9 °F 29.84 in NW 8.0 mph 17.0 mph 64% 0.00 in
08:24 32.8 °F 22.3 °F 29.85 in NNW 3.0 mph 19.0 mph 65% 0.00 in
08:29 32.8 °F 21.6 °F 29.85 in NNW 10.0 mph 20.0 mph 63% 0.00 in
08:34 33.0 °F 22.5 °F 29.85 in NNW 5.0 mph 20.0 mph 65% 0.00 in
08:39 33.2 °F 22.3 °F 29.85 in NW 8.0 mph 20.0 mph 64% 0.00 in
08:44 33.5 °F 22.3 °F 29.85 in NW 11.0 mph 20.0 mph 63% 0.00 in
08:49 33.6 °F 22.0 °F 29.85 in NNW 9.0 mph 18.0 mph 62% 0.00 in
08:54 34.1 °F 23.2 °F 29.85 in NNW 7.0 mph 27.0 mph 64% 0.00 in
08:59 34.7 °F 23.0 °F 29.85 in NNW 10.0 mph 27.0 mph 62% 0.00 in
09:04 34.5 °F 22.4 °F 29.85 in NW 10.0 mph 21.0 mph 61% 0.00 in
09:09 34.6 °F 22.9 °F 29.85 in NNW 6.0 mph 21.0 mph 62% 0.00 in
09:14 34.4 °F 22.3 °F 29.86 in WNW 6.0 mph 24.0 mph 61% 0.00 in
09:19 35.3 °F 23.2 °F 29.85 in NW 6.0 mph 24.0 mph 61% 0.00 in
09:24 36.4 °F 24.6 °F 29.85 in NW 3.0 mph 18.0 mph 62% 0.00 in
09:29 36.8 °F 23.8 °F 29.86 in NW 8.0 mph 17.0 mph 59% 0.00 in
09:34 36.9 °F 23.5 °F 29.85 in NNW 5.0 mph 20.0 mph 58% 0.00 in
09:39 37.6 °F 25.0 °F 29.85 in North 3.0 mph 20.0 mph 60% 0.00 in
09:44 37.9 °F 24.9 °F 29.85 in NW 6.0 mph 15.0 mph 59% 0.00 in
09:49 37.6 °F 23.3 °F 29.85 in NNW 7.0 mph 18.0 mph 56% 0.00 in
09:54 38.2 °F 24.3 °F 29.85 in NNW 4.0 mph 18.0 mph 57% 0.00 in
09:59 38.4 °F 24.9 °F 29.85 in NNW 4.0 mph 18.0 mph 58% 0.00 in
10:04 37.6 °F 23.7 °F 29.85 in NW 7.0 mph 30.0 mph 57% 0.00 in
10:09 38.6 °F 25.1 °F 29.85 in NW 9.0 mph 30.0 mph 58% 0.00 in
10:14 38.9 °F 25.4 °F 29.86 in NW 7.0 mph 19.0 mph 58% 0.00 in
10:19 39.2 °F 25.7 °F 29.86 in NNW 4.0 mph 19.0 mph 58% 0.00 in
10:24 39.7 °F 24.9 °F 29.86 in NNW 9.0 mph 18.0 mph 55% 0.00 in
10:29 39.8 °F 24.9 °F 29.86 in NNW 5.0 mph 19.0 mph 55% 0.00 in
10:34 39.4 °F 24.1 °F 29.86 in NW 5.0 mph 26.0 mph 54% 0.00 in
10:39 39.8 °F 24.9 °F 29.86 in NNW 5.0 mph 26.0 mph 55% 0.00 in
10:44 40.7 °F 25.3 °F 29.86 in North 1.0 mph 16.0 mph 54% 0.00 in
10:49 42.5 °F 27.0 °F 29.86 in NW 2.0 mph 15.0 mph 54% 0.00 in
10:54 42.7 °F 25.8 °F 29.86 in NNW 5.0 mph 15.0 mph 51% 0.00 in
10:59 43.3 °F 26.9 °F 29.87 in NNW 2.0 mph 15.0 mph 52% 0.00 in
11:04 42.9 °F 26.5 °F 29.87 in NNW 4.0 mph 15.0 mph 52% 0.00 in
11:09 42.2 °F 25.4 °F 29.87 in NW 9.0 mph 23.0 mph 51% 0.00 in
11:14 41.9 °F 26.0 °F 29.87 in NW 5.0 mph 23.0 mph 53% 0.00 in
11:19 41.8 °F 26.4 °F 29.87 in NW 8.0 mph 22.0 mph 54% 0.00 in
11:29 42.2 °F 25.4 °F 29.87 in NW 8.0 mph 27.0 mph 51% 0.00 in
11:34 43.1 °F 26.2 °F 29.87 in NNW 7.0 mph 27.0 mph 51% 0.00 in
11:39 43.4 °F 26.9 °F 29.87 in NNW 9.0 mph 18.0 mph 52% 0.00 in
11:44 43.3 °F 26.9 °F 29.87 in NNW 4.0 mph 18.0 mph 52% 0.00 in
11:49 43.2 °F 26.8 °F 29.87 in NNW 3.0 mph 17.0 mph 52% 0.00 in
11:54 44.0 °F 26.1 °F 29.87 in NW 4.0 mph 17.0 mph 49% 0.00 in
11:59 43.2 °F 25.8 °F 29.87 in NW 7.0 mph 23.0 mph 50% 0.00 in
12:04 44.5 °F 27.0 °F 29.88 in North 2.0 mph 23.0 mph 50% 0.00 in
12:09 44.5 °F 26.5 °F 29.87 in NNW 4.0 mph 24.0 mph 49% 0.00 in
12:14 43.9 °F 25.5 °F 29.88 in NNW 7.0 mph 24.0 mph 48% 0.00 in
12:19 44.7 °F 27.2 °F 29.88 in NW 4.0 mph 20.0 mph 50% 0.00 in
12:24 44.5 °F 27.0 °F 29.87 in North 6.0 mph 17.0 mph 50% 0.00 in
12:29 44.5 °F 26.5 °F 29.88 in NNW 7.0 mph 19.0 mph 49% 0.00 in
12:34 44.0 °F 25.6 °F 29.87 in NW 7.0 mph 28.0 mph 48% 0.00 in
12:39 44.0 °F 25.6 °F 29.87 in NNW 8.0 mph 28.0 mph 48% 0.00 in
12:44 44.2 °F 27.2 °F 29.87 in North 2.0 mph 20.0 mph 51% 0.00 in
12:49 45.5 °F 27.4 °F 29.87 in North 5.0 mph 23.0 mph 49% 0.00 in
12:54 45.2 °F 25.6 °F 29.87 in NW 11.0 mph 23.0 mph 46% 0.00 in
12:59 43.6 °F 25.2 °F 29.87 in WNW 9.0 mph 21.0 mph 48% 0.00 in
13:04 44.1 °F 25.7 °F 29.87 in NNW 8.0 mph 21.0 mph 48% 0.00 in
Westford Weather
Compliments of Weather Underground

 
 
Current Radar Loop:

Copyright © WestfordWeather.net 2007-2014. All rights reserved.